Regional Weather Roundup
Issued by NWS

Current Version | Previous Version | Text Only | Print | Product List | Glossary Off
Versions: 1 2 3 4 5 6 7 8 9 10 11 12 13 14 15 16 17 18 19 20 21 22 23 24 25 26 27 28 29 30 31 32 33 34 35 36 37 38 39 40 41 42 43 44 45 46 47 48 49 50

000
ASUS44 KJAN 021810
RWRMS

MISSISSIPPI HOURLY WEATHER ROUNDUP
NATIONAL WEATHER SERVICE JACKSON MS
100 PM CDT SUN AUG 02 2015

NOTE: "FAIR: INDICATES FEW OR NO CLOUDS BELOW 12,000 FEET WITH NO
SIGNIFICANT WEATHER AND/OR OBSTRUCTIONS TO VISIBILITY.

MSZ001>002-007>008-010>013-018>021-025>028-034>036-021900-
NORTHWEST MISSISSIPPI

CITY           SKY/WX    TMP DP  RH WIND       PRES   REMARKS
CLARKSDALE     FAIR      91  66  43 S3        29.96F HX  94
CLEVELAND      FAIR      91  70  49 NW5       29.95F HX  96
GREENWOOD      SUNNY     94  65  38 NE9       29.94F HX  96
6HR MIN TEMP:  70; 6HR MAX TEMP:  94;

GREENVILLE     SUNNY     93  71  48 N7        29.95S HX 100
6HR MIN TEMP:  70; 6HR MAX TEMP:  94;

OLIVE BRANCH   MOSUNNY   91  66  43 NW5       29.97F HX  94
OXFORD         FAIR      90  64  43 W8        29.98F HX  91
TUNICA         CLEAR     90  66  45 CALM      29.97F HX  92
$$

MSZ003>006-009-014>017-022>024-029>033-037>039-021900-
NORTHEAST MISSISSIPPI

CITY           SKY/WX    TMP DP  RH WIND       PRES   REMARKS
COLUMBUS AFB   SUNNY     92  65  39 N7        29.94F HX  94
6HR MIN TEMP:  71; 6HR MAX TEMP:  92;

CORINTH        FAIR      90  68  48 NE6       29.96F HX  93
GOLDN TRIANGLE MOSUNNY   97  64  34 CALM      29.95S HX  99
STARKVILLE     FAIR      90  64  43 N7        29.95F HX  91
TUPELO         SUNNY     92  63  38 CALM      29.95F HX  93
6HR MIN TEMP:  71; 6HR MAX TEMP:  92;

$$

MSZ040-058-021900-
CENTRAL MISSISSIPPI

CITY           SKY/WX    TMP DP  RH WIND       PRES   REMARKS
JACKSON INTL   MOSUNNY   98  56  24 N13       29.93F HX  96
6HR MIN TEMP:  73; 6HR MAX TEMP:  98;

JACKSON HAWKNS SUNNY     96  53  23 MISG      29.94F HX  93
6HR MIN TEMP:  75; 6HR MAX TEMP:  96;

MERIDIAN KEY   MOSUNNY   93  60  33 N8        29.93F HX  93
6HR MIN TEMP:  69; 6HR MAX TEMP:  93;

MERIDIAN NAS   SUNNY     93  61  34 MISG      29.94F HX  93
6HR MIN TEMP:  67; 6HR MAX TEMP:  93;

VICKSBURG      SUNNY     95  64  35 N6        29.94F HX  97
6HR MIN TEMP:  69; 6HR MAX TEMP:  96;

$$

MSZ059>079-021900-
SOUTH MISSISSIPPI

CITY           SKY/WX    TMP DP  RH WIND       PRES   REMARKS
BROOKHAVEN     FAIR      91  70  49 NE5       29.95F HX  97
HATTIESBURG    SUNNY     92  70  48 E6        29.92F HX  97
6HR MIN TEMP:  70; 6HR MAX TEMP:  93;

MCCOMB         MOSUNNY   93  66  40 VRB3      29.92F HX  96
6HR MIN TEMP:  72; 6HR MAX TEMP:  94;

NATCHEZ        SUNNY     91  66  43 N10G17    29.94F HX  94
6HR MIN TEMP:  66; 6HR MAX TEMP:  91;

PINE BELT      MOSUNNY   91  66  43 SE5       29.94F HX  94
6HR MIN TEMP:  72; 6HR MAX TEMP:  93;

$$

MSZ080>082-021900-
COASTAL MISSISSIPPI

CITY           SKY/WX    TMP DP  RH WIND       PRES   REMARKS
BAY ST LOUIS   MOSUNNY   93  55  27 CALM      29.91S HX  91
BILOXI         MOSUNNY   92  72  51 VRB3      29.90F HX 100
6HR MIN TEMP:  76; 6HR MAX TEMP:  92;

PASCAGOULA     PTSUNNY   92  74  55 VRB3      29.90F HX 101
6HR MIN TEMP:  72; 6HR MAX TEMP:  93;

GULFPORT       MOSUNNY   93  69  45 N7        29.90F HX  98
6HR MIN TEMP:  73; 6HR MAX TEMP:  94;

$$



USA.gov is the U.S. government's official web portal to all federal, state and local government web resources and services.